Home   Weather   Aguascalientes   Past weeks

Flag for Mexico Past Weather in Aguascalientes, Aguascalientes, Mexico — Yesterday and Last 2 Weeks

Now
54 °F

Clear.


Feels Like: 54 °F
Forecast: 48 / 83 °F
Wind: No wind

Location: Aguascalientes - Ags.

Current Time: Apr 27, 2017 at 6:12:49 am

Latest Report: Apr 27, 2017 at 4:49 am


Visibility: 8 mi

Pressure: 30.08 "Hg (24.04 "Hg at 1870m altitude)

Humidity: 22%

Dew Point: 16 °F

Location of AguascalientesLocation

Past Weather in Aguascalientes — Graph

°F

Aguascalientes Temperature Yesterday

Maximum temperature yesterday: 84 °F (at 3:40 pm)
Minimum temperature yesterday: 48 °F (at 4:46 am)
Average temperature yesterday: 68 °F

High & Low Weather Summary for the Past Weeks

 TemperatureHumidityPressure
High88 °F (Apr 22, 3:43 pm)77% (Apr 14, 4:40 am)30.30 "Hg (Apr 14, 4:40 am)
Low46 °F (Apr 18, 7:48 am)2% (Apr 26, 5:44 pm)29.62 "Hg (Apr 21, 6:47 pm)
Average69 °F26%30.11 "Hg
* Reported Apr 12 4:48 am — Apr 27 4:49 am, Aguascalientes, Weather by CustomWeather, © 2017

Note: Actual official high and low records may vary slightly from our data, if they occured in-between our weather recording intervals... More about our weather records

Advertising

Aguascalientes Weather History for the Previous 24 Hours

Scroll right to see more
 ConditionsComfort  
Time TempWeatherWind HumidityBarometerVisibility
4:49 am
Thu, Apr 27
54 °FClear.No wind22%30.08 "Hg8 mi
11:41 pm
Wed, Apr 26
61 °FPassing clouds.3 mph12%30.13 "Hg10 mi
10:42 pm63 °FPassing clouds.8 mph11%30.10 "Hg10 mi
9:45 pm66 °FPassing clouds.8 mph9%30.07 "Hg10 mi
8:42 pm73 °FPassing clouds.7 mph6%30.04 "Hg10 mi
7:42 pm79 °FPartly sunny.13 mph4%30.03 "Hg13 mi
6:44 pm82 °FPartly sunny.12 mph3%30.01 "Hg13 mi
5:44 pm84 °FPartly sunny.10 mph2%30.02 "Hg13 mi
4:40 pm82 °FScattered clouds.7 mph3%30.03 "Hg10 mi
3:40 pm84 °FPartly sunny.13 mph4%30.04 "Hg10 mi
2:40 pm82 °FPartly sunny.7 mph5%30.07 "Hg10 mi
1:41 pm79 °FScattered clouds.7 mph6%30.11 "Hg10 mi
12:40 pm75 °FPassing clouds.No wind7%29.83 "Hg10 mi
11:42 am68 °FPassing clouds.5 mph11%30.15 "Hg10 mi
10:49 am70 °FScattered clouds.12 mph12%30.15 "Hg12 mi
9:45 am63 °FScattered clouds.9 mph17%30.15 "Hg12 mi
8:41 am57 °FScattered clouds.5 mph21%30.14 "Hg11 mi
7:42 am50 °FPartly sunny.6 mph25%30.12 "Hg10 mi
6:53 am50 °FPassing clouds.5 mph25%29.79 "Hg8 mi
Weather by CustomWeather, © 2017

See weather overviewHow to use our weather pages